Flag Weather past 2 weeks in Salalah, Oman

Now
86 °F

Passing clouds.


Feels Like: 86 °F
Forecast: 67 / 86 °F
Wind: 7 mph from Southeast

Location: Salalah Airport

Current Time: Nov 27, 2014 at 1:21:01 PM

Latest Report: Nov 27, 2014 at 11:50 AM


Visibility: N/A

Pressure: 29.92 "Hg

Humidity: 43%

Dew point: 61 °F

Location of SalalahLocation

Historic Weather in Salalah — Graph

°F

Salalah temperature yesterday

Maximum temperature yesterday: 84 °F (at 10:50 AM)
Minimum temperature yesterday: 75 °F (at 11:50 PM)
Average temperature yesterday: 80 °F

Past Weeks' High & Low Weather Summary

 TemperatureHumidityPressure
High90 °F (Nov 21, 11:50 AM)79% (Nov 15, 9:50 PM)30.07 "Hg (Nov 15, 9:50 PM)
Low70 °F (Nov 13, 12:50 AM)15% (Nov 12, 11:50 AM)29.86 "Hg (Nov 23, 1:50 PM)
Average80 °F52%29.95 "Hg
* Reported Nov 12 11:50 AM — Nov 27 11:50 AM, Salalah, Weather by CustomWeather, © 2014

Note: Actual official high and low records may vary slightly from our data, if they occured in-between our weather recording intervals... More about our weather records

Advertising

Salalah weather history for previous 24 hours

 ConditionsComfort  
Time TempWeatherWind HumidityBarometerVisibility
11:50 AM
Nov 27
86 °FPassing clouds.7 mph43%29.92 "HgN/A
10:50 AM84 °FScattered clouds.5 mph48%29.98 "HgN/A
9:50 AM84 °FWarm.1 mph48%29.98 "HgN/A
8:50 AM79 °FPassing clouds.1 mph58%29.98 "HgN/A
7:50 AM75 °FPassing clouds.6 mph65%29.95 "HgN/A
6:50 AM72 °FMild.5 mph73%29.95 "HgN/A
5:50 AM72 °FClear.5 mph73%29.92 "Hg10 mi
4:50 AM72 °FClear.5 mph73%29.92 "Hg10 mi
3:50 AM73 °FClear.5 mph69%29.89 "Hg10 mi
2:50 AM73 °FClear.5 mph69%29.89 "Hg10 mi
1:50 AM73 °FMild.2 mph69%29.89 "HgN/A
12:50 AM75 °FClear.3 mph65%29.89 "Hg10 mi
11:50 PM
Nov 26
75 °FClear.5 mph65%29.92 "Hg10 mi
10:50 PM77 °FClear.5 mph61%29.92 "Hg10 mi
9:50 PM77 °FWarm.5 mph65%29.92 "HgN/A
8:50 PM79 °FClear.2 mph61%29.92 "Hg10 mi
7:50 PM79 °FClear.2 mph61%29.92 "Hg10 mi
6:50 PM79 °FClear.3 mph61%29.89 "Hg10 mi
5:50 PM81 °FWarm.5 mph58%29.89 "HgN/A
4:50 PM82 °FPassing clouds.6 mph51%29.86 "HgN/A
3:50 PM82 °FWarm.7 mph48%29.86 "HgN/A
2:50 PM84 °FPassing clouds.8 mph45%29.86 "HgN/A
1:50 PM84 °FWarm.7 mph45%29.86 "HgN/A
Weather by CustomWeather, © 2014

See weather overviewHow to use our weather pages